Wind_Speed
16 16 17 17 18 18 18 19 19 19 19 20 20 21 21 22 23 24 24 25 26 27 28 30 31 33 34 36 38 39 40 40 40 41 43 44 45 45 44 44 44 44 45
17 17 17 18 18 19 19 20 20 20 21 21 22 22 22 23 24 25 25 26 26 27 28 30 31 33 34 36 37 39 41 42 42 42 43 44 45 46 46 45 45 45 45
17 18 18 19 19 20 20 21 22 22 23 23 23 23 24 24 25 25 26 27 27 28 29 30 31 32 34 35 37 38 40 42 42 43 43 44 46 46 46 47 46 46 45
17 18 19 19 20 21 22 22 23 23 24 24 24 24 25 25 25 26 26 27 27 29 29 30 31 31 32 34 36 37 39 41 42 42 44 44 45 47 47 47 47 46 46
18 19 19 20 21 22 22 23 24 24 25 25 24 25 25 26 26 26 26 27 27 28 28 29 29 30 31 32 33 35 37 39 40 41 42 43 44 46 47 47 47 47 47
18 19 20 20 21 22 23 24 25 25 26 26 26 26 26 26 26 26 26 27 27 28 28 28 28 28 29 30 32 34 35 37 38 40 40 42 43 44 45 47 47 48 47
18 19 20 21 22 23 24 25 26 26 27 27 27 27 27 27 27 27 27 27 28 28 27 27 27 27 27 29 30 31 33 35 37 38 39 40 42 43 44 45 46 47 47
19 19 20 21 23 24 25 26 27 27 28 28 28 28 28 28 28 28 28 28 27 27 27 26 26 26 26 27 27 28 30 32 35 36 37 38 41 42 42 43 44 45 46
19 20 21 22 23 25 26 27 27 28 29 29 29 29 29 29 29 29 29 28 27 27 26 26 25 25 25 25 26 27 28 30 32 33 35 36 38 40 41 42 42 44 45
20 21 22 23 24 25 26 27 28 29 29 30 30 30 30 30 30 30 29 28 27 27 27 26 24 24 24 25 25 25 26 27 29 31 33 35 36 38 39 40 41 41 43
21 22 23 23 25 26 27 28 29 29 30 30 31 31 31 30 30 30 29 28 27 26 26 25 24 24 23 24 24 24 24 25 27 29 31 33 34 36 37 38 39 40 41
22 23 24 25 25 26 27 28 29 30 30 31 31 31 31 31 30 30 28 28 27 26 25 24 24 23 23 23 22 22 22 23 24 26 28 30 32 34 36 37 38 39 40
23 24 24 25 26 27 28 28 30 31 31 31 31 31 31 31 30 30 28 27 27 26 26 25 24 23 23 22 21 20 20 21 22 24 25 28 30 32 34 35 36 38 39
24 25 26 26 27 28 28 29 30 31 31 31 31 32 32 31 31 30 29 28 27 26 26 25 24 23 22 21 19 18 17 18 19 21 23 26 28 30 32 33 35 37 37
25 26 27 27 28 29 29 30 30 30 31 31 32 32 32 32 31 30 29 28 27 26 26 25 24 22 21 20 18 16 16 16 17 18 20 22 25 27 30 32 33 35 36
26 27 28 28 29 29 30 30 31 31 32 32 32 33 33 32 31 30 29 28 28 27 25 24 23 22 20 19 17 16 15 14 14 16 18 20 22 25 27 30 32 33 34
27 28 29 29 30 30 31 31 32 32 32 32 32 33 33 32 31 30 29 28 27 26 25 24 23 21 20 18 16 15 14 13 13 14 15 17 19 23 25 27 29 30 31
29 29 30 31 31 32 32 33 33 33 33 33 33 33 32 31 31 30 28 27 26 26 25 23 22 21 19 18 16 15 14 14 14 14 14 16 17 20 24 25 27 29 30
31 31 31 32 33 34 34 34 34 34 33 33 33 33 33 31 30 29 28 27 26 25 24 23 22 21 20 18 17 15 14 14 13 13 14 15 17 18 21 23 25 26 28
32 32 33 34 35 35 36 36 35 35 34 34 33 33 33 31 30 29 28 27 26 25 24 23 22 21 20 19 17 15 14 14 13 13 14 15 16 17 19 21 23 25 26
34 34 35 36 36 36 36 36 36 36 35 35 34 33 32 31 30 29 27 26 25 24 23 23 22 21 20 18 17 15 14 14 13 13 13 14 15 16 17 19 21 23 24
36 36 37 37 38 38 38 38 37 37 36 35 34 33 32 30 29 28 27 26 24 23 23 23 22 20 19 18 17 16 14 13 13 13 13 14 15 15 16 17 19 20 22
38 39 39 39 39 39 39 39 39 38 37 36 34 33 32 31 29 28 27 26 25 24 23 22 21 20 19 18 17 16 14 14 13 13 12 13 13 14 15 16 17 19 21
40 41 41 41 40 40 40 39 39 38 37 36 34 33 32 32 30 28 26 25 25 24 23 22 21 20 18 18 17 16 15 14 13 12 11 11 12 13 14 15 16 18 21
42 42 42 42 41 41 40 40 39 38 37 36 34 33 32 30 29 27 26 25 25 24 23 22 21 20 18 18 17 16 15 14 14 13 12 12 12 12 13 14 15 17 19
43 43 43 42 42 41 41 40 39 38 37 36 34 33 31 29 28 27 26 25 24 23 22 22 21 20 19 18 17 17 16 15 15 14 13 13 13 13 13 13 14 15 17
Wind_Direction
351 349 347 346 344 342 339 337 334 331 327 323 317 311 307 303 300 296 293 290 287 283 279 275 272 269 266 263 261 258 255 251 248 245 244 243 242 241 239 236 235 233 232
352 351 350 349 347 345 342 340 338 335 331 328 323 318 313 308 304 300 297 295 291 288 284 279 275 271 268 264 261 258 256 253 249 246 244 243 241 240 239 237 236 234 232
351 351 350 350 349 347 345 343 341 338 335 333 329 325 320 315 310 305 302 299 295 291 288 284 279 274 270 266 263 260 256 253 250 247 244 243 241 240 238 236 235 234 233
350 350 350 350 350 348 347 345 342 340 338 335 332 328 324 320 316 312 308 304 300 296 292 288 283 278 273 269 265 260 257 253 250 247 245 243 242 240 238 236 235 234 232
348 348 348 348 348 347 346 344 342 341 339 336 333 330 326 323 319 315 312 310 307 303 298 293 287 281 276 272 266 261 257 254 250 247 245 242 241 240 238 236 234 233 232
346 346 346 345 345 344 344 342 342 341 340 338 335 333 330 327 323 319 315 314 311 308 303 297 290 285 279 275 270 263 258 254 250 247 245 243 241 239 238 236 234 233 231
342 343 343 343 342 342 342 341 340 339 338 337 335 334 331 328 325 322 319 317 314 311 307 301 295 289 283 279 273 266 260 254 251 248 245 243 240 238 237 236 234 233 231
338 339 340 341 341 341 340 340 339 338 337 336 335 334 332 330 327 325 322 319 317 314 311 306 299 293 288 282 276 269 263 257 251 247 244 242 239 237 236 235 234 232 231
333 335 336 337 337 337 338 338 338 337 336 336 336 334 332 330 329 328 326 323 321 318 314 310 304 298 292 286 279 273 266 259 252 247 243 240 239 237 235 234 233 232 231
328 330 332 333 334 335 335 336 337 337 337 336 335 335 333 331 330 329 328 325 323 321 318 313 307 301 296 291 284 276 269 261 254 248 243 239 238 236 234 233 232 231 231
324 326 328 329 330 332 333 334 336 337 336 336 335 335 334 332 331 330 328 327 325 323 322 317 312 306 301 296 288 280 272 263 256 250 246 241 238 236 233 232 231 230 230
323 324 325 326 327 329 330 332 333 335 334 334 335 335 334 333 332 332 330 328 326 326 324 321 317 312 306 301 293 284 275 265 259 253 246 240 237 235 233 231 230 230 228
319 321 323 324 325 327 327 329 331 333 334 335 335 335 335 334 333 333 332 330 329 328 327 324 320 316 311 306 298 288 277 268 261 253 247 241 237 235 234 231 229 229 227
316 318 320 321 322 324 326 327 329 331 333 334 335 335 335 334 333 333 334 332 331 330 329 326 324 320 316 313 304 293 284 275 265 254 248 241 236 234 233 232 230 227 227
314 316 318 318 319 321 323 325 327 328 330 331 332 333 334 333 333 332 332 332 331 330 329 328 325 322 321 318 310 300 291 282 269 259 250 242 238 234 233 231 230 228 228
311 313 315 317 318 319 320 322 324 325 327 328 329 331 332 332 332 332 331 331 331 330 329 328 327 324 323 320 313 304 296 287 277 266 253 245 239 235 233 233 231 227 227
310 311 313 315 316 317 317 318 320 322 324 325 326 327 329 329 329 329 330 330 330 330 329 329 328 327 324 320 315 308 299 290 283 272 256 248 242 236 234 235 233 229 228
309 310 311 312 313 313 314 314 315 318 320 322 323 324 325 325 325 326 327 328 329 330 329 328 328 328 326 320 313 308 301 292 284 273 260 253 246 239 235 234 232 231 228
307 308 308 309 310 311 312 312 312 314 317 319 320 321 322 322 322 322 323 325 326 327 328 327 325 325 325 321 314 306 300 295 288 279 266 258 252 243 235 232 231 231 228
304 305 305 307 308 308 309 310 311 311 313 314 316 318 319 319 318 318 318 320 323 324 324 324 323 322 320 319 317 308 299 295 289 283 273 261 252 244 238 234 232 231 230
302 302 303 305 306 306 306 307 308 309 310 311 312 314 315 315 314 314 314 316 318 319 319 320 321 320 317 314 313 308 303 296 288 283 275 263 253 246 239 236 232 231 231
300 301 302 303 303 304 304 304 305 306 307 308 308 309 311 310 311 311 311 312 314 315 316 317 317 317 315 312 309 306 304 299 292 284 277 266 254 248 245 240 236 234 231
298 300 301 300 301 301 302 303 304 304 304 305 305 306 306 306 306 307 307 308 308 309 311 314 314 313 313 311 307 304 301 299 296 290 279 269 260 252 246 243 241 235 231
297 298 298 298 299 299 300 300 301 302 302 302 302 302 303 303 303 303 303 304 305 305 306 307 308 309 309 311 309 304 299 294 291 288 282 272 263 257 251 246 243 238 233
296 296 296 296 296 297 297 298 298 299 300 300 299 299 299 300 300 300 300 302 302 301 301 301 302 302 303 306 307 305 298 293 288 283 279 274 268 261 254 248 244 240 236
295 295 295 295 295 295 295 295 296 296 297 297 296 294 295 295 295 296 296 298 299 298 298 298 298 298 300 300 300 299 295 292 287 280 274 271 267 261 255 249 244 241 238
Height
5825 5821 5818 5814 5811 5807 5804 5801 5797 5794 5791 5788 5785 5782 5779 5776 5774 5771 5769 5767 5765 5763 5761 5760 5760 5759 5759 5759 5759 5760 5762 5764 5767 5770 5772 5775 5778 5782 5787 5791 5795 5799 5804
5823 5819 5816 5812 5808 5805 5801 5797 5794 5790 5787 5783 5779 5776 5773 5769 5766 5763 5761 5758 5756 5754 5752 5750 5749 5748 5747 5747 5747 5748 5749 5751 5754 5758 5760 5763 5766 5770 5775 5779 5784 5789 5793
5821 5817 5813 5809 5806 5802 5798 5794 5790 5786 5782 5778 5774 5770 5767 5763 5759 5756 5753 5750 5747 5745 5742 5740 5738 5737 5736 5735 5735 5736 5737 5738 5741 5745 5747 5750 5754 5758 5762 5767 5772 5777 5782
5819 5815 5811 5807 5803 5799 5795 5791 5787 5782 5778 5774 5770 5765 5761 5757 5753 5749 5745 5742 5739 5736 5733 5730 5728 5726 5725 5723 5723 5723 5724 5725 5728 5731 5735 5738 5741 5745 5750 5755 5761 5766 5771
5816 5813 5809 5805 5801 5797 5792 5788 5784 5779 5774 5770 5765 5761 5756 5751 5747 5743 5739 5735 5731 5727 5723 5720 5718 5715 5713 5712 5711 5711 5712 5713 5715 5718 5722 5725 5729 5732 5737 5743 5748 5754 5759
5814 5810 5806 5802 5798 5794 5790 5785 5780 5776 5771 5766 5761 5756 5751 5746 5741 5736 5732 5728 5723 5719 5715 5711 5708 5705 5703 5701 5700 5699 5700 5701 5703 5706 5709 5713 5716 5720 5725 5730 5736 5742 5748
5811 5808 5804 5800 5795 5791 5786 5782 5777 5772 5767 5762 5756 5751 5746 5740 5735 5730 5725 5720 5716 5711 5706 5702 5699 5696 5693 5691 5689 5689 5689 5689 5691 5694 5697 5701 5704 5709 5713 5718 5723 5729 5736
5808 5805 5801 5797 5792 5788 5783 5778 5773 5768 5763 5757 5752 5746 5741 5735 5730 5724 5719 5713 5708 5703 5698 5694 5690 5687 5684 5682 5680 5679 5678 5678 5680 5683 5686 5689 5692 5696 5701 5706 5711 5717 5724
5805 5802 5798 5793 5789 5784 5779 5774 5769 5764 5758 5753 5747 5741 5736 5730 5724 5718 5712 5707 5701 5696 5691 5687 5682 5679 5676 5673 5671 5669 5668 5668 5669 5671 5674 5677 5681 5685 5690 5695 5700 5706 5712
5802 5798 5794 5789 5785 5780 5775 5770 5765 5760 5754 5748 5742 5736 5731 5725 5719 5712 5707 5701 5695 5690 5685 5680 5675 5672 5668 5665 5663 5661 5660 5659 5659 5661 5664 5667 5670 5674 5679 5684 5689 5695 5701
5797 5794 5790 5785 5780 5776 5771 5766 5760 5755 5749 5744 5738 5732 5725 5719 5713 5707 5701 5695 5690 5684 5679 5674 5669 5665 5661 5658 5655 5653 5651 5651 5651 5652 5654 5657 5661 5665 5669 5674 5679 5685 5690
5793 5789 5785 5780 5776 5771 5766 5761 5755 5750 5745 5739 5733 5727 5720 5714 5708 5702 5696 5690 5684 5679 5673 5668 5663 5659 5655 5651 5648 5645 5643 5643 5643 5644 5645 5648 5652 5655 5659 5664 5669 5675 5680
5787 5783 5779 5775 5770 5766 5761 5756 5750 5745 5739 5733 5728 5722 5715 5709 5703 5697 5691 5685 5679 5673 5668 5663 5658 5653 5648 5645 5641 5638 5636 5636 5636 5636 5638 5640 5643 5647 5650 5655 5660 5665 5670
5782 5778 5774 5769 5765 5760 5755 5750 5745 5739 5734 5728 5722 5716 5710 5704 5698 5692 5686 5680 5674 5669 5663 5658 5653 5648 5643 5639 5636 5633 5631 5630 5629 5630 5631 5633 5636 5639 5643 5646 5651 5656 5661
5776 5772 5768 5763 5759 5754 5749 5744 5739 5734 5728 5723 5717 5711 5705 5699 5693 5687 5681 5675 5670 5664 5658 5653 5648 5643 5639 5635 5631 5629 5627 5625 5625 5625 5625 5627 5629 5632 5635 5639 5643 5647 5652
5769 5765 5761 5757 5753 5748 5743 5738 5733 5728 5722 5717 5711 5705 5699 5694 5688 5682 5676 5671 5665 5659 5654 5649 5644 5639 5635 5631 5628 5625 5623 5622 5621 5621 5621 5622 5624 5626 5628 5632 5635 5639 5644
5763 5759 5754 5750 5746 5741 5736 5732 5727 5722 5716 5711 5705 5699 5694 5688 5682 5677 5671 5666 5660 5655 5650 5645 5640 5636 5631 5628 5624 5622 5620 5618 5618 5617 5617 5617 5618 5620 5622 5625 5628 5631 5636
5755 5751 5747 5743 5738 5734 5730 5725 5720 5715 5710 5704 5699 5693 5688 5682 5677 5671 5666 5661 5656 5650 5646 5641 5636 5632 5628 5625 5621 5619 5617 5615 5614 5613 5613 5613 5614 5615 5617 5619 5622 5625 5628
5747 5743 5739 5735 5731 5726 5722 5717 5712 5707 5703 5698 5692 5687 5681 5676 5671 5666 5661 5656 5651 5646 5641 5637 5633 5629 5625 5621 5618 5615 5613 5612 5610 5609 5609 5609 5609 5609 5611 5613 5615 5618 5622
5739 5735 5731 5727 5722 5718 5713 5709 5704 5700 5695 5690 5685 5680 5675 5670 5665 5660 5655 5651 5646 5642 5637 5633 5629 5625 5621 5618 5615 5612 5610 5608 5607 5605 5604 5604 5604 5605 5606 5608 5610 5613 5615
5730 5726 5722 5717 5713 5709 5704 5700 5695 5691 5687 5682 5677 5672 5667 5663 5658 5654 5649 5645 5641 5637 5633 5629 5625 5621 5617 5614 5611 5608 5606 5605 5603 5602 5601 5600 5600 5601 5602 5603 5605 5607 5610
5720 5716 5712 5708 5703 5699 5695 5690 5686 5682 5677 5673 5669 5664 5660 5656 5651 5647 5643 5639 5635 5632 5628 5624 5620 5616 5613 5610 5607 5605 5603 5601 5599 5598 5597 5596 5596 5597 5598 5599 5600 5602 5605
5709 5705 5701 5697 5693 5689 5684 5680 5676 5672 5668 5664 5660 5655 5651 5648 5644 5640 5636 5633 5629 5626 5622 5619 5616 5612 5609 5606 5603 5601 5599 5597 5596 5594 5593 5593 5592 5593 5593 5594 5596 5597 5600
5697 5693 5689 5685 5681 5677 5673 5669 5665 5661 5657 5653 5650 5646 5642 5639 5636 5633 5629 5626 5623 5620 5616 5613 5610 5607 5604 5602 5599 5597 5595 5593 5592 5591 5590 5589 5589 5589 5589 5590 5591 5593 5594
5685 5681 5677 5673 5669 5665 5661 5658 5654 5650 5646 5643 5640 5636 5633 5630 5627 5624 5622 5619 5616 5613 5610 5607 5605 5602 5600 5597 5595 5592 5590 5589 5588 5587 5586 5585 5585 5585 5585 5586 5587 5588 5590
5671 5668 5664 5660 5656 5653 5649 5645 5642 5638 5635 5632 5629 5626 5623 5621 5618 5616 5614 5611 5609 5606 5604 5601 5599 5597 5594 5592 5590 5588 5586 5584 5583 5582 5581 5581 5581 5581 5581 5582 5583 5584 5585